Wind_Speed
9 9 9 4 3 4 3 4 3 5 5 10 14 17 12 11 3 4 21 17 14 19 22 17 14 11 7 6 6 5 9 12 14 14 14 15 18 20 17 20 18 16 12 17 17 16 18 18 19
11 11 5 2 4 3 4 2 5 3 13 21 19 12 11 4 11 17 20 17 12 17 22 17 12 9 7 5 6 3 11 12 13 14 14 15 20 21 21 18 17 15 14 14 16 17 19 18 19
11 9 2 3 3 4 2 3 8 11 13 5 7 15 7 8 16 18 18 15 13 16 21 18 12 8 7 5 7 7 10 11 13 14 14 16 21 21 19 17 14 11 9 10 13 16 19 20 20
7 3 1 3 4 5 7 6 9 6 9 6 20 9 9 9 15 19 22 16 20 18 17 18 13 9 7 7 11 12 12 12 13 15 15 20 21 18 18 17 14 13 11 13 17 18 20 21 22
5 1 2 1 4 2 5 16 13 5 7 10 6 5 6 11 16 26 23 20 18 17 16 12 15 9 7 6 10 11 12 14 14 15 16 20 19 17 18 16 16 14 10 14 14 17 21 20 21
1 0 3 2 5 3 4 15 13 8 12 11 12 9 6 17 24 25 21 19 15 18 17 15 15 11 5 5 7 9 10 12 14 16 18 19 19 18 18 16 15 14 13 15 11 20 20 20 19
3 3 3 3 3 3 5 11 10 12 12 6 19 5 15 26 22 23 21 16 14 18 17 15 12 8 5 3 5 7 10 11 13 17 18 18 17 17 19 17 16 16 14 14 17 18 19 19 19
0 3 2 4 2 2 6 6 12 14 4 20 8 8 11 32 25 21 19 18 17 18 14 12 9 8 6 5 6 8 9 11 13 14 17 19 18 18 17 15 16 16 16 16 18 20 19 19 18
2 3 2 3 2 3 4 4 7 7 12 7 4 15 21 35 27 26 28 24 21 18 16 11 11 8 6 7 8 8 10 11 13 13 12 11 12 14 18 18 18 18 19 21 19 20 20 19 20
3 3 6 1 2 0 5 5 9 6 9 7 13 11 33 38 33 33 31 26 18 21 18 13 8 9 6 8 9 9 10 11 13 11 10 10 11 11 12 17 19 20 23 21 20 22 21 20 21
6 5 2 1 3 2 3 5 5 13 3 12 25 35 42 40 34 33 28 23 22 21 20 16 12 8 8 10 10 10 11 11 11 10 11 11 12 13 14 17 21 25 22 19 21 22 22 21 21
3 7 4 3 1 1 2 3 5 8 4 10 21 31 39 41 36 34 30 27 23 21 18 18 14 12 10 11 10 10 10 11 11 11 11 10 11 14 15 17 22 23 20 18 22 21 22 22 22
4 3 4 4 3 3 1 2 4 6 7 15 28 34 37 39 37 32 28 24 23 20 18 19 17 13 11 12 11 10 9 10 11 10 10 9 10 13 15 16 17 18 18 18 21 21 20 20 17
7 7 5 5 5 3 4 2 5 7 16 27 30 34 34 37 37 35 28 24 22 21 20 21 20 14 14 13 12 11 10 10 10 10 9 10 11 13 14 15 16 15 15 18 19 21 20 18 17
6 4 1 6 7 3 6 3 7 15 22 31 31 31 33 34 33 31 28 25 25 24 23 21 21 16 16 15 13 11 11 10 11 10 11 11 12 13 13 13 14 14 15 17 18 19 18 17 16
4 2 2 1 10 4 7 7 7 27 30 30 30 30 32 32 30 28 28 26 25 25 23 20 19 18 17 14 13 12 11 11 11 11 11 12 12 12 13 13 14 15 16 16 17 17 17 16 14
3 4 5 1 11 4 5 5 3 30 29 28 29 31 32 31 27 28 30 29 25 25 24 22 19 18 17 16 14 13 12 11 11 11 11 12 12 12 12 13 15 15 16 16 16 17 14 16 15
5 3 4 6 8 4 5 5 3 19 24 27 29 31 32 32 30 30 30 30 24 26 24 22 19 19 18 17 15 14 13 13 12 12 12 12 12 13 13 15 15 16 16 17 17 17 17 16 18
4 4 3 1 4 5 9 4 12 18 17 22 28 34 34 33 28 32 29 29 27 28 27 24 22 21 19 18 17 16 14 14 13 13 13 13 12 13 14 15 15 16 15 17 17 18 19 21 18
8 4 3 2 0 3 4 11 8 11 16 28 33 35 36 34 31 35 32 32 32 30 28 26 24 21 19 17 16 14 15 14 13 14 15 14 14 14 15 15 17 17 17 18 18 19 22 22 19
6 8 5 4 2 2 0 6 5 6 10 23 28 39 36 37 37 41 36 36 33 32 31 28 26 22 20 19 19 19 17 16 16 16 16 16 15 16 16 16 17 17 17 17 19 19 18 19 17
7 7 7 7 4 4 3 5 5 7 10 9 21 33 39 38 34 42 40 39 37 35 32 29 27 24 22 20 18 15 15 16 16 15 16 16 16 16 16 16 16 16 17 17 18 19 18 15 15
7 1 7 6 4 3 1 2 7 6 6 12 17 27 36 38 36 39 46 41 38 36 34 31 27 26 24 20 16 16 16 15 15 17 16 17 17 17 16 16 16 16 16 17 18 20 17 14 14
8 7 8 5 3 2 8 7 5 7 12 14 11 27 27 31 37 34 46 41 39 36 35 33 29 28 26 22 19 18 17 17 17 18 18 17 17 17 17 17 16 16 16 17 17 17 16 15 13
5 7 2 2 2 6 4 5 15 4 5 6 18 28 31 28 26 37 43 43 42 38 37 35 32 29 28 24 22 20 16 14 13 15 16 17 17 17 17 16 17 16 16 17 18 18 18 17 15
6 7 6 8 5 4 1 7 6 0 4 2 21 30 25 26 27 28 40 43 42 39 37 36 33 30 29 27 24 21 17 14 13 14 15 15 15 15 16 16 16 16 16 16 17 17 18 18 18
5 5 4 5 2 3 4 6 5 3 2 7 16 20 19 20 24 30 30 42 40 37 35 37 35 31 29 29 26 23 20 17 14 14 14 14 14 14 14 14 15 15 15 16 16 16 17 17 18
3 3 3 2 3 4 5 5 6 6 11 8 8 17 19 19 19 25 32 39 38 33 33 34 33 32 29 30 28 23 20 17 14 12 12 12 12 12 12 12 13 14 14 15 15 16 16 17 17
2 1 2 3 5 6 2 6 5 6 12 15 10 22 23 22 23 24 26 29 30 30 30 30 31 31 29 29 28 25 22 19 16 13 12 12 12 11 11 11 11 12 12 13 14 14 15 16 17
2 6 6 4 6 3 4 7 2 2 6 17 18 24 24 23 24 24 25 26 28 28 28 28 30 28 27 26 26 25 23 21 18 15 14 13 12 12 12 12 12 11 12 12 13 13 14 15 16
Wind_Direction
147 142 140 109 60 68 258 285 134 102 62 62 77 90 104 70 50 143 146 178 175 158 152 148 142 148 153 139 111 106 97 91 94 85 82 88 93 95 88 105 96 85 79 75 82 85 88 91 85
152 137 102 82 86 58 278 14 75 65 125 102 83 88 60 69 107 131 148 170 188 157 162 151 149 148 149 151 116 141 98 93 92 94 89 93 98 97 97 101 101 101 74 76 87 92 92 94 86
146 128 130 112 150 179 140 339 125 117 127 121 106 78 86 115 129 141 155 156 155 155 165 169 148 145 147 147 106 113 99 96 92 97 93 98 102 97 105 102 103 96 72 71 85 98 99 95 92
137 157 229 98 234 277 140 173 132 114 85 110 114 75 88 145 143 147 154 151 143 141 153 168 157 161 157 145 108 104 102 94 94 97 95 102 98 98 108 113 110 98 87 82 93 107 109 96 96
116 177 66 220 255 228 120 153 143 118 111 127 115 124 84 118 154 160 165 163 154 143 150 162 171 163 153 124 116 118 107 107 100 99 98 103 100 110 114 115 106 110 100 89 98 110 99 100 100
75 128 73 229 253 165 142 151 132 113 122 121 102 100 115 144 157 159 169 167 175 151 153 157 175 171 148 135 117 123 119 118 114 109 104 107 115 116 120 119 116 115 106 94 102 106 106 109 106
134 99 214 227 270 181 166 136 125 138 136 143 135 89 139 152 157 161 170 180 168 157 165 174 176 193 215 166 126 109 117 118 116 116 113 125 128 127 125 130 128 126 112 112 103 108 110 115 115
128 104 271 242 186 330 169 106 96 128 113 135 144 150 174 163 161 166 168 168 152 161 177 170 184 198 194 168 144 130 123 120 122 126 131 134 131 127 130 128 124 127 117 121 110 110 116 121 125
166 68 227 275 296 138 160 96 81 106 125 105 108 157 162 157 168 164 166 161 162 165 170 178 194 196 174 161 145 135 131 134 135 139 136 132 131 143 149 127 125 120 129 119 113 114 121 126 129
146 143 216 197 332 326 157 108 130 127 120 76 104 136 153 158 171 170 168 168 175 171 170 172 178 178 159 151 147 137 132 139 144 140 124 119 122 124 127 139 140 128 132 129 120 118 124 132 132
178 200 180 91 90 36 160 117 157 138 215 182 155 149 158 163 176 178 178 179 173 170 168 170 181 203 181 169 157 150 143 142 146 140 139 133 131 122 125 129 129 134 131 129 129 126 130 134 134
186 236 198 162 89 152 119 141 166 176 196 197 184 168 164 169 177 181 177 176 178 177 179 181 194 208 187 173 165 160 152 145 149 153 148 143 138 132 134 139 141 138 137 137 138 136 136 139 139
180 239 177 157 194 168 155 120 178 179 151 164 169 167 169 174 178 182 180 181 180 183 192 181 193 213 190 179 171 168 161 153 154 159 153 150 143 142 144 147 151 153 156 143 146 148 144 148 146
188 211 181 184 189 180 151 224 186 168 164 163 168 175 177 180 185 187 192 184 176 177 173 182 199 208 192 183 177 174 170 163 160 157 155 152 152 150 152 155 156 156 155 152 155 160 159 165 153
124 144 254 206 181 204 166 245 222 170 171 165 174 178 181 187 191 192 186 176 178 176 174 192 205 197 189 186 179 176 175 168 167 164 157 155 153 155 156 153 153 156 155 158 161 163 167 172 173
128 138 189 277 150 195 163 253 204 168 166 167 176 180 185 191 196 189 184 179 181 182 180 190 195 186 186 187 179 178 176 175 170 166 162 159 158 157 156 157 156 156 156 159 163 166 168 173 170
214 189 199 278 189 140 179 252 341 177 175 171 179 182 188 190 195 189 185 187 183 187 183 189 192 190 187 187 182 179 178 178 173 168 166 165 163 158 160 159 158 156 157 155 157 157 170 164 157
181 206 226 198 210 164 175 236 184 181 180 178 184 186 188 192 194 185 190 194 194 189 191 194 191 192 189 186 183 181 179 180 174 169 169 171 167 163 164 163 162 159 159 155 154 154 150 148 144
174 191 237 279 200 136 207 198 217 206 197 188 189 188 193 197 196 184 192 193 198 194 195 195 193 190 190 187 186 185 184 181 175 170 171 172 168 166 164 166 164 161 162 158 156 150 147 143 144
242 258 248 6 218 147 189 243 226 189 209 197 190 189 193 196 196 186 190 197 198 198 199 197 197 192 188 190 186 191 185 181 179 174 173 175 172 168 166 167 167 167 167 162 158 157 151 147 147
211 204 215 211 188 282 281 292 201 215 210 208 202 201 201 199 197 192 190 199 202 202 200 201 196 191 188 187 188 186 189 188 183 180 179 177 177 174 172 172 171 171 171 168 164 165 164 159 159
203 193 176 147 124 227 151 269 264 202 200 194 180 194 198 201 204 193 189 198 202 204 202 203 198 192 191 194 195 195 199 192 187 186 183 181 183 180 180 180 177 177 176 176 172 170 172 172 171
219 163 174 157 136 81 230 67 268 140 209 212 205 184 197 203 200 194 191 197 200 202 204 203 201 194 194 192 194 192 190 189 188 187 188 186 188 188 188 189 188 186 185 184 184 183 185 183 186
145 74 43 55 83 324 212 166 241 193 204 211 205 197 181 191 199 195 195 196 200 201 205 205 201 199 195 191 189 194 195 194 191 190 192 192 191 193 195 196 196 196 196 196 195 196 199 199 199
93 101 33 360 346 228 255 176 244 254 227 221 194 193 190 181 181 194 193 196 199 201 204 205 202 202 197 191 190 194 197 195 195 194 195 197 197 197 199 201 202 204 204 204 206 208 211 216 219
187 157 157 196 198 232 348 220 248 301 13 214 178 176 182 194 194 185 196 197 199 201 205 203 202 202 201 193 190 193 196 196 194 197 197 198 200 200 202 204 207 208 211 214 217 219 221 226 231
191 203 169 104 12 60 214 274 274 182 108 106 138 159 176 192 204 201 195 197 195 200 202 204 202 203 203 195 192 195 196 196 196 197 201 203 202 204 205 208 211 214 217 220 224 228 232 236 240
158 190 101 351 166 240 262 243 225 226 209 186 169 163 166 172 164 173 185 190 192 199 198 199 204 204 204 197 193 202 205 201 201 201 204 206 208 208 208 211 215 219 222 226 231 235 239 243 247
159 242 235 145 160 185 227 256 225 218 198 184 172 170 162 163 170 167 165 177 187 190 191 197 200 203 201 196 195 199 207 206 204 204 206 209 213 215 217 219 222 226 230 233 238 241 245 249 251
283 207 172 164 242 215 155 259 6 287 190 164 160 164 163 165 167 173 178 184 193 194 193 192 195 196 196 193 196 199 202 202 204 205 206 210 214 217 219 223 225 229 233 238 244 247 250 254 257
Height
1514 1516 1516 1518 1529 1530 1531 1515 1507 1511 1516 1519 1515 1517 1531 1537 1542 1548 1548 1550 1552 1555 1558 1560 1560 1561 1561 1561 1560 1560 1560 1560 1559 1560 1560 1560 1561 1564 1566 1569 1570 1570 1570 1570 1571 1571 1571 1571 1571
1514 1515 1517 1518 1534 1541 1531 1512 1515 1512 1515 1520 1520 1526 1530 1543 1542 1545 1548 1551 1552 1555 1558 1560 1561 1561 1561 1561 1561 1560 1560 1560 1560 1560 1561 1562 1563 1566 1569 1571 1571 1572 1572 1572 1572 1573 1573 1573 1573
1515 1515 1518 1521 1532 1532 1525 1517 1516 1516 1517 1518 1523 1528 1535 1543 1544 1546 1549 1551 1553 1554 1558 1560 1561 1561 1561 1561 1561 1561 1561 1560 1561 1561 1563 1564 1566 1568 1571 1573 1574 1573 1574 1574 1574 1575 1575 1575 1576
1515 1517 1519 1526 1527 1516 1514 1516 1513 1515 1518 1519 1523 1532 1539 1542 1544 1547 1549 1552 1554 1556 1558 1561 1562 1561 1561 1561 1561 1562 1562 1562 1562 1562 1564 1566 1568 1571 1573 1575 1575 1576 1575 1575 1576 1576 1576 1577 1578
1515 1517 1524 1526 1521 1511 1510 1510 1511 1514 1518 1521 1522 1535 1539 1544 1544 1547 1550 1553 1555 1557 1559 1561 1562 1562 1561 1561 1561 1561 1562 1563 1564 1564 1566 1568 1571 1573 1574 1575 1576 1578 1577 1577 1577 1577 1577 1579 1580
1516 1518 1529 1532 1519 1509 1508 1507 1511 1514 1518 1522 1525 1532 1541 1544 1544 1547 1549 1553 1555 1558 1559 1560 1561 1561 1562 1561 1562 1562 1562 1563 1564 1565 1567 1570 1571 1573 1574 1577 1577 1578 1578 1579 1578 1579 1580 1582 1583
1515 1520 1525 1519 1516 1510 1507 1505 1510 1514 1517 1522 1524 1534 1542 1545 1545 1546 1549 1552 1555 1559 1559 1560 1561 1562 1562 1562 1562 1563 1563 1563 1564 1565 1567 1569 1571 1573 1575 1576 1578 1578 1579 1580 1580 1581 1583 1585 1586
1515 1517 1518 1516 1516 1514 1505 1506 1510 1514 1518 1522 1524 1530 1539 1540 1545 1545 1549 1551 1554 1558 1561 1561 1561 1561 1562 1562 1562 1563 1563 1564 1565 1566 1566 1569 1571 1572 1575 1577 1578 1579 1581 1581 1583 1583 1585 1586 1587
1513 1522 1525 1514 1509 1508 1507 1506 1511 1515 1516 1518 1522 1523 1525 1537 1542 1544 1547 1551 1553 1557 1560 1561 1559 1561 1562 1562 1563 1563 1564 1565 1565 1565 1567 1569 1570 1571 1573 1575 1578 1579 1580 1583 1584 1585 1587 1588 1589
1514 1522 1515 1508 1509 1507 1506 1507 1510 1515 1518 1520 1522 1524 1527 1535 1538 1540 1543 1548 1552 1555 1558 1560 1560 1560 1562 1563 1563 1564 1564 1565 1566 1567 1568 1570 1571 1572 1573 1574 1576 1579 1581 1583 1585 1587 1589 1590 1591
1510 1516 1506 1508 1507 1509 1508 1507 1510 1512 1518 1516 1518 1522 1527 1533 1536 1539 1542 1547 1552 1554 1557 1559 1560 1559 1561 1563 1563 1564 1565 1566 1567 1569 1569 1570 1571 1573 1574 1575 1577 1579 1583 1585 1587 1589 1591 1592 1593
1508 1505 1505 1506 1506 1508 1508 1508 1510 1511 1512 1513 1515 1518 1523 1530 1533 1536 1540 1544 1550 1553 1556 1558 1559 1559 1560 1562 1563 1564 1566 1566 1568 1569 1570 1571 1572 1574 1575 1576 1578 1581 1584 1586 1588 1591 1592 1594 1594
1504 1504 1505 1504 1506 1506 1507 1507 1510 1510 1511 1512 1516 1521 1524 1528 1532 1536 1539 1543 1547 1551 1554 1557 1557 1559 1560 1561 1562 1564 1566 1567 1567 1569 1570 1571 1573 1574 1576 1578 1579 1580 1583 1586 1589 1592 1594 1596 1597
1498 1503 1504 1503 1505 1505 1506 1508 1509 1510 1511 1513 1515 1519 1523 1525 1530 1533 1537 1541 1546 1549 1552 1554 1555 1558 1559 1560 1562 1564 1565 1567 1568 1569 1570 1572 1573 1575 1576 1578 1579 1581 1584 1587 1590 1593 1595 1597 1599
1498 1504 1504 1503 1502 1505 1506 1510 1506 1505 1511 1511 1516 1518 1522 1525 1529 1531 1535 1540 1544 1547 1549 1553 1554 1556 1558 1559 1561 1563 1565 1567 1568 1569 1570 1572 1573 1575 1577 1579 1581 1582 1585 1587 1590 1593 1595 1597 1599
1500 1503 1510 1499 1500 1504 1506 1511 1500 1503 1506 1510 1513 1517 1520 1523 1526 1531 1534 1539 1543 1545 1547 1550 1553 1554 1556 1559 1560 1562 1565 1567 1568 1569 1570 1572 1573 1576 1578 1579 1581 1583 1584 1587 1590 1593 1595 1597 1599
1502 1510 1507 1501 1500 1502 1505 1504 1498 1500 1504 1508 1511 1514 1517 1522 1526 1529 1533 1536 1540 1543 1545 1547 1551 1553 1555 1558 1560 1561 1564 1567 1568 1569 1571 1572 1574 1576 1578 1580 1582 1583 1585 1587 1590 1592 1595 1596 1599
1504 1505 1501 1502 1499 1500 1504 1503 1501 1502 1503 1504 1508 1512 1514 1517 1521 1525 1531 1535 1538 1541 1544 1546 1550 1551 1554 1556 1558 1561 1563 1566 1568 1569 1571 1572 1574 1576 1578 1580 1582 1584 1586 1588 1590 1592 1595 1597 1599
1493 1497 1496 1496 1491 1495 1499 1498 1499 1500 1501 1502 1505 1507 1510 1513 1519 1524 1528 1532 1535 1539 1541 1545 1547 1549 1552 1554 1556 1559 1562 1564 1567 1568 1570 1572 1574 1576 1578 1580 1582 1584 1587 1588 1590 1593 1595 1598 1600
1494 1497 1496 1498 1494 1495 1496 1496 1493 1494 1493 1493 1497 1501 1504 1509 1515 1520 1523 1527 1530 1534 1538 1542 1545 1547 1550 1553 1555 1558 1561 1563 1566 1568 1570 1572 1573 1575 1578 1580 1582 1584 1586 1589 1591 1594 1594 1598 1600
1492 1497 1496 1498 1498 1497 1496 1496 1487 1486 1488 1490 1492 1493 1498 1500 1507 1513 1517 1521 1526 1529 1533 1538 1541 1545 1549 1551 1553 1555 1559 1561 1564 1566 1568 1571 1573 1575 1578 1580 1582 1584 1587 1589 1592 1594 1596 1598 1600
1493 1484 1487 1496 1505 1514 1496 1516 1486 1484 1484 1486 1486 1487 1491 1495 1500 1506 1511 1515 1519 1525 1531 1535 1539 1543 1546 1548 1551 1553 1556 1559 1562 1565 1568 1570 1573 1575 1577 1580 1582 1585 1587 1589 1592 1594 1597 1598 1600
1484 1481 1486 1494 1505 1507 1502 1526 1492 1481 1485 1481 1481 1481 1483 1488 1492 1498 1504 1509 1515 1521 1526 1531 1536 1539 1543 1546 1549 1551 1554 1558 1560 1563 1566 1569 1571 1574 1576 1579 1581 1584 1586 1589 1591 1593 1596 1598 1600
1479 1487 1494 1501 1511 1535 1506 1505 1492 1479 1468 1468 1474 1477 1479 1483 1489 1495 1500 1505 1510 1517 1522 1527 1532 1536 1540 1544 1546 1550 1553 1555 1558 1560 1564 1566 1569 1572 1575 1577 1580 1582 1585 1587 1590 1592 1594 1596 1598
1480 1493 1526 1528 1537 1513 1498 1501 1461 1463 1462 1461 1462 1468 1474 1480 1485 1490 1494 1499 1505 1510 1516 1522 1528 1533 1537 1541 1543 1547 1551 1554 1556 1558 1561 1564 1567 1570 1572 1575 1578 1580 1583 1585 1588 1590 1592 1594 1596
1482 1482 1503 1509 1509 1495 1496 1495 1470 1463 1462 1459 1460 1464 1471 1476 1481 1486 1490 1494 1500 1506 1511 1517 1524 1529 1534 1538 1541 1545 1549 1552 1554 1556 1559 1562 1565 1568 1570 1573 1576 1578 1581 1583 1585 1587 1590 1592 1594
1478 1484 1476 1500 1495 1515 1488 1476 1463 1465 1464 1463 1464 1466 1470 1474 1477 1481 1486 1491 1496 1502 1507 1513 1519 1525 1531 1535 1538 1542 1547 1549 1552 1554 1557 1560 1563 1565 1568 1571 1574 1576 1578 1580 1582 1584 1586 1588 1590
1471 1472 1485 1499 1503 1495 1478 1471 1458 1466 1462 1464 1464 1466 1469 1473 1476 1479 1483 1488 1494 1499 1504 1510 1516 1522 1527 1531 1535 1540 1544 1547 1549 1552 1555 1558 1561 1563 1566 1568 1571 1574 1576 1578 1580 1581 1583 1585 1587
1476 1482 1476 1475 1480 1484 1494 1467 1447 1444 1448 1454 1460 1464 1467 1471 1475 1478 1482 1488 1492 1497 1503 1508 1513 1518 1523 1527 1532 1537 1541 1545 1547 1550 1553 1556 1558 1561 1563 1566 1569 1571 1573 1575 1576 1578 1580 1581 1583
1467 1465 1466 1468 1481 1488 1489 1464 1448 1447 1447 1452 1459 1463 1467 1471 1474 1477 1481 1485 1490 1495 1500 1505 1510 1515 1520 1524 1529 1534 1538 1541 1544 1547 1551 1554 1556 1558 1561 1563 1565 1567 1569 1571 1573 1575 1576 1577 1579